Regional Weather Roundup
Issued by NWS

Home | Current Version | Previous Version | Text Only | Print | Product List | Glossary Off
Versions: 1 2 3 4 5 6 7 8 9 10 11 12 13 14 15 16 17 18 19 20 21 22 23 24 25 26 27 28 29 30 31 32 33 34 35 36 37 38 39 40 41 42 43 44 45 46 47 48 49 50

975
ASUS45 KBOU 181510
RWRCO

WEATHER ROUNDUP FOR COLORADO
NATIONAL WEATHER SERVICE DENVER/BOULDER CO
800 AM MST THU JAN 18 2018

NOTE: "FAIR" INDICATES FEW OR NO CLOUDS BELOW 12000 FEET WITH NO
SIGNIFICANT WEATHER AND/OR OBSTRUCTIONS TO VISIBILITY.

COZ001>005-013-030-031-181600-
...NORTHWEST COLORADO...

CITY           SKY/WX    TMP DP  RH WIND       PRES   REMARKS
CRAIG          FAIR      14   8  77 CALM      30.33S
HAYDEN         FAIR     N/A N/A N/A E13       30.34R
MEEKER         FAIR      20  16  84 CALM      30.33R
RABBIT EARS PA FAIR      21  14  73 W7        30.31R WCI  13
STEAMBOAT SPGS FAIR      10   8  90 CALM      30.34S
WALDEN         FAIR      14   9  79 SE7       30.30S WCI   4
$$

COZ006>008-011-181600-
...WEST CENTRAL VALLEYS...

CITY           SKY/WX    TMP DP  RH WIND       PRES   REMARKS
GRAND JUNCTION FAIR      19  15  84 E3        30.36R
MONTROSE       FAIR      19  11  70 SE5       30.36R WCI  12
EAGLE          FAIR       9   4  80 CALM      30.44R
RIFLE          FAIR      19  13  77 SW6       30.37R WCI  11
DELTA          FAIR      16  10  78 SW5       30.37R WCI   9
NUCLA          FAIR      19  12  73 N3        30.37R
$$

COZ017>023-064>068-181600-
...SOUTHWEST COLORADO...

CITY           SKY/WX    TMP DP  RH WIND       PRES   REMARKS
DURANGO        FAIR      13  11  92 CALM      30.31R
CORTEZ         FAIR      13  10  88 CALM      30.32R
PAGOSA SPRINGS FAIR      18  15  91 CALM      30.30R
TELLURIDE      FAIR      23   4  45 SE8       30.34R WCI  14
WOLF CREEK PAS FAIR      27 -18  13 W3        30.39R
$$

COZ009-010-012-014-032>034-037-058>063-181600-
...CENTRAL COLORADO...

CITY           SKY/WX    TMP DP  RH WIND       PRES   REMARKS
ASPEN          FAIR      15   8  73 CALM      30.31R
BUENA VISTA    FAIR      19   6  59 W6        30.26S WCI  10
COPPER MTN     NOT AVBL
BERTHOUD PASS  FAIR      19   9  63 NW22G37   30.31S WCI   3
COTTONWOOD PAS   N/A     36  -4  18 NW7       30.26S
GUNNISON       FAIR       2  -3  80 N3        30.42R
KREMMLING      FAIR       5   0  78 CALM      30.42R
LEADVILLE      FAIR      17  -1  45 NE8       30.29R WCI   7
MONARCH PASS   FAIR      23  -2  33 W22G28    30.42R WCI   8
SALIDA         FAIR      28   9  45 N8        30.34R WCI  20
SUNLIGHT       FAIR      28   1  31 W5        30.38R WCI  23
WILKERSON PASS FAIR      32 -15  12 N9G28     30.30R WCI  24
$$

COZ069>075-181600-
...SAN LUIS VALLEY/SANGRE DE CRISTO MOUNTAINS...

CITY           SKY/WX    TMP DP  RH WIND       PRES   REMARKS
ALAMOSA        FAIR       5  -8  55 CALM      30.31R
DEL NORTE      FAIR      21   1  42 W13       30.30R WCI   8
LA VETA PASS   FAIR      23   3  42 SW23        N/A  WCI   7
SAGUACHE       FAIR      14   5  67 CALM      30.30R
$$

COZ035-036-038>040-181600-
...NORTHERN COLORADO FRONT RANGE...

CITY           SKY/WX    TMP DP  RH WIND       PRES   REMARKS
DENVER INTL AP MOCLDY    38  11  32 SW13      30.09R
DMNS CITY PARK NOT AVBL
AURORA         MOCLDY    36  10  34 S10       30.10R
FRONT RANGE AP MOCLDY    32  16  51 S10       30.10R WCI  24
ERIE MUNI ARPT FAIR      18  13  83 CALM      30.14S
BOULDER MUN AP FAIR      30  14  51 CALM      30.08R
CENTENNIAL     FAIR      37   7  28 SE6       30.10R
BROOMFIELD     PTCLDY    39   9  28 CALM      30.09R
FORT COLLINS   FAIR      22  16  78 NE9       30.10R WCI  12
LONGMONT       FAIR      23  15  71 CALM      30.11R
$$

COZ041-046-047-076>085-087-088-181600-
...PIKES PEAK/PALMER DIVIDE AND SOUTHERN FOOTHILLS...

CITY           SKY/WX    TMP DP  RH WIND       PRES   REMARKS
COLO. SPRINGS  FAIR      31   9  39 N7        30.14R WCI  24
A. F. ACADEMY  FAIR      22   7  52 N12       30.14R WCI  11
SCHRIEVER AFB  FAIR      33   7  34 NW5       30.15R WCI  28
CHEYENNE MTN   FAIR      40   4  22 CALM      30.10R
ELLICOTT         N/A      1   1 100 CALM      30.13R
FALCON         FAIR      28   6  39 W7        30.16R WCI  21
FORT CARSON    FAIR      28   9  45 N13       30.12R WCI  17
LIMON          FAIR      16  10  77 N6        30.12R WCI   7
MONUMENT HILL  FAIR      27   9  46 S8        30.16R WCI  18
CANON CITY     FAIR      39  10  30 W22G32    30.14S
WALSENBURG     FAIR      43  10  26 W20G25    30.14S
TRINIDAD       FAIR      25   6  44 NW13      30.16S WCI  14
$$

COZ042>045-048>051-090-091-181600-
...NORTHEAST COLORADO...

CITY           SKY/WX    TMP DP  RH WIND       PRES   REMARKS
GREELEY ARPT   FAIR      14   8  77 W3        30.12R
AKRON          FAIR      30  13  49 W15       30.08R WCI  19
BURLINGTON     FAIR      36  14  40 SW9       30.08F
WRAY           FAIR      25  18  74 MISG      30.07R
YUMA           FAIR      23  12  63 W10       30.07R WCI  12
STERLING       FAIR      19  14  79 S9        30.08R WCI   9
HOLYOKE        FAIR      27  19  74 W9        30.05R WCI  17
FORT MORGAN    NOT AVBL
$$

COZ086-089-092>099-181600-
...SOUTHEAST COLORADO...

CITY           SKY/WX    TMP DP  RH WIND       PRES   REMARKS
PUEBLO         FAIR      18   8  65 W5        30.13S WCI  11
LA JUNTA       FAIR      26   9  48 W12       30.15S WCI  16
LAMAR          FAIR      21  11  65 W13       30.14S WCI   9
SPRINGFIELD      N/A     23  12  62 CALM      30.13S
$$




USA.gov is the U.S. government's official web portal to all federal, state and local government web resources and services.